Wind_Speed
25 21 21 22 21 23 20 14 4 7 23 7 4 7 6 5 12 22 7 6 8 9 8 8 8 8 5 6 5 15 4 1 5 8 3 7 9 17 14 3 2 2 4 2
26 25 24 21 22 24 28 11 5 13 27 6 7 4 13 14 9 12 6 7 7 3 3 2 2 4 4 1 4 4 7 3 3 1 3 3 5 4 5 6 3 4 2 2
24 26 25 24 21 22 33 11 4 4 14 4 4 7 8 8 14 12 15 5 10 2 5 5 2 3 4 4 4 1 4 2 4 5 3 1 3 10 10 6 3 1 3 5
23 24 26 24 20 21 31 11 4 9 5 10 7 8 5 16 9 9 17 9 8 6 5 6 7 4 2 3 5 1 2 3 3 3 6 6 8 3 5 8 5 5 4 8
23 23 23 21 21 23 35 7 5 10 5 20 18 13 7 16 17 9 16 8 8 10 7 4 2 7 5 4 4 5 1 3 0 3 8 4 5 6 5 4 5 1 14 10
25 24 23 24 23 28 16 21 10 6 2 8 12 17 17 8 13 13 14 10 9 8 8 7 7 10 10 3 6 5 6 3 3 3 7 3 3 2 3 9 13 4 4 8
26 24 26 26 25 31 28 18 14 2 2 4 13 12 20 16 11 8 10 7 6 6 12 11 9 15 7 11 7 6 1 5 2 1 5 4 4 6 9 12 10 10 11 10
28 26 28 27 27 25 35 12 13 3 4 3 8 17 11 22 14 4 8 7 13 23 20 6 3 3 3 2 4 7 8 3 2 3 3 6 6 3 2 4 4 6 6 11
27 27 28 26 29 27 36 19 13 5 2 5 9 7 14 3 4 3 3 14 24 23 4 3 4 4 5 5 5 7 5 3 3 1 3 5 3 7 9 3 2 6 8 4
22 27 23 21 30 36 34 23 16 5 3 5 11 3 6 10 6 3 7 6 7 8 2 2 3 3 7 6 8 5 3 1 3 2 2 2 1 7 5 4 3 10 4 3
28 29 24 21 30 33 31 23 12 5 2 9 8 7 6 7 12 4 13 6 2 2 3 3 2 1 1 3 2 7 4 5 3 3 1 4 7 1 3 8 11 13 10 13
31 30 30 25 28 27 26 19 11 3 3 0 15 14 16 11 7 11 19 10 6 8 3 2 2 4 1 5 3 2 1 4 4 2 2 6 8 12 10 12 17 14 14 15
31 32 26 32 29 26 22 20 15 11 3 5 4 3 9 3 10 15 6 7 6 4 4 1 1 2 3 2 2 4 3 6 4 4 5 7 9 12 12 13 15 15 15 15
30 34 33 29 26 22 15 23 15 7 3 2 4 10 9 5 8 12 7 15 8 8 4 1 1 2 4 1 3 3 5 6 7 5 9 13 11 12 15 17 17 17 15 17
30 28 26 24 22 26 17 21 12 15 4 3 8 13 11 10 8 8 5 5 9 9 1 2 1 1 3 2 3 3 3 5 4 3 21 6 17 17 18 19 19 18 22 21
30 28 27 23 27 23 16 5 6 20 9 4 2 6 8 10 10 11 7 4 3 4 3 3 4 1 2 3 2 4 13 12 7 8 15 18 22 19 17 20 20 19 18 17
24 24 21 28 23 17 6 4 17 13 10 4 2 2 2 4 5 8 6 5 5 4 3 3 5 2 2 2 3 11 19 19 24 26 26 20 22 18 19 19 21 19 18 17
25 28 20 19 15 10 3 13 15 11 5 3 3 1 2 2 1 2 2 2 3 6 2 2 3 2 2 3 7 20 20 18 15 11 3 25 20 22 21 22 22 21 20 19
24 25 25 17 10 4 3 18 13 4 3 3 3 4 3 5 2 3 1 2 2 1 1 1 2 1 0 6 19 20 20 12 16 15 22 24 25 24 23 23 22 22 22 20
30 25 6 3 8 16 19 8 2 1 2 1 2 5 1 6 3 1 2 3 3 1 2 3 3 1 5 18 21 21 17 16 17 24 23 25 25 25 24 22 22 22 22 20
16 4 3 16 21 6 3 3 2 1 1 4 1 10 5 6 3 2 2 2 1 2 3 3 1 0 3 19 20 18 15 16 19 19 22 23 23 24 22 21 21 21 20 20
5 13 22 13 3 2 4 1 1 1 3 2 5 12 7 5 3 3 3 2 3 1 2 3 0 1 18 21 22 19 17 17 16 20 20 20 21 21 22 23 23 20 18 17
21 6 3 3 4 4 4 3 2 2 1 3 16 3 3 4 5 3 3 4 1 1 2 2 1 11 15 19 21 20 19 17 18 21 20 21 22 22 21 21 19 18 17 16
3 3 4 2 1 2 3 2 2 2 5 22 16 6 4 4 4 1 4 2 2 2 1 2 2 14 18 20 22 22 21 21 24 24 24 23 21 19 17 16 17 18 18 17
4 4 3 3 3 7 5 4 5 10 18 14 9 5 4 1 3 1 3 3 2 3 1 1 12 19 22 22 22 21 21 21 22 23 23 21 19 19 18 16 17 18 19 18
4 6 3 7 6 3 4 7 10 9 12 10 4 2 3 1 4 2 4 2 1 2 2 9 15 19 22 23 23 23 21 19 21 22 20 19 18 17 16 18 18 18 16 16
4 3 7 12 11 7 5 9 8 5 3 1 2 3 3 1 1 3 2 2 2 8 8 10 11 16 20 21 20 19 20 19 19 19 18 18 18 16 18 21 21 19 17 15
Wind_Direction
243 244 239 237 233 228 228 227 210 219 189 181 233 211 210 217 250 246 257 243 220 237 249 245 258 188 219 326 356 205 162 80 223 218 154 228 224 220 207 180 240 327 347 111
239 240 239 238 233 230 228 206 194 179 189 204 212 240 240 242 236 222 215 222 208 268 264 237 309 109 175 214 42 249 140 188 204 275 10 274 241 217 165 186 153 219 261 108
241 237 239 241 241 237 210 178 173 150 211 226 230 210 225 226 267 243 225 222 243 222 249 208 220 134 197 238 187 11 169 249 197 171 167 287 229 238 216 159 127 197 281 131
242 241 238 239 232 228 215 203 172 182 182 220 215 219 238 219 229 255 213 212 207 183 236 225 225 156 152 232 128 171 109 258 261 312 194 182 286 318 248 215 191 155 229 124
249 245 238 234 225 208 200 182 185 187 286 204 203 219 203 230 221 220 215 188 208 207 221 217 194 140 206 173 144 169 99 279 77 336 270 195 254 313 307 307 319 18 116 105
246 244 227 219 218 204 207 209 197 195 264 194 183 213 221 250 238 224 229 202 205 225 212 121 331 132 169 236 149 162 153 168 115 232 224 307 321 348 359 85 44 19 61 120
241 235 217 221 208 210 197 193 216 300 254 215 201 208 211 233 243 225 258 145 112 126 133 132 114 132 142 150 145 134 219 167 245 203 92 201 121 53 78 97 62 44 86 107
232 225 218 218 217 216 201 183 197 205 248 288 246 220 219 223 251 240 214 200 150 158 118 68 64 16 78 191 190 197 192 173 143 143 178 117 142 51 134 140 84 49 62 119
224 218 219 223 215 205 202 206 211 216 247 232 288 263 228 158 148 144 236 198 155 153 115 127 153 182 178 170 185 218 226 214 133 163 161 209 193 142 122 77 174 75 68 26
214 211 211 222 215 200 196 205 208 239 260 282 310 175 183 139 117 115 222 118 124 155 100 125 163 218 181 172 173 177 162 116 176 232 205 133 249 77 111 88 198 106 90 38
212 216 219 214 179 187 189 198 156 186 268 350 52 107 127 147 143 155 171 92 346 75 125 147 178 185 231 84 198 159 151 168 178 204 174 195 7 320 194 132 115 115 107 104
215 209 206 184 172 180 196 205 188 183 307 111 73 68 101 122 153 149 173 160 152 168 147 198 147 164 50 140 149 51 107 163 136 30 105 77 59 96 123 145 134 124 128 128
190 192 188 173 175 184 190 198 189 125 205 58 110 46 87 115 114 158 154 139 148 116 105 162 199 149 127 145 188 98 114 152 94 155 133 117 113 109 126 136 135 140 138 142
172 168 167 168 173 180 171 193 179 166 160 107 66 75 73 113 129 156 132 144 127 151 128 108 159 120 36 91 149 113 189 116 123 82 123 129 136 133 138 132 135 134 140 140
143 151 157 162 168 164 168 170 151 166 143 124 112 82 74 87 108 138 115 153 164 154 147 78 131 89 79 61 81 27 22 154 159 200 166 134 148 156 147 140 137 137 133 133
142 150 159 163 156 156 134 138 157 130 117 107 72 73 80 83 101 107 111 131 205 243 131 123 89 104 115 102 82 105 82 95 121 125 137 135 146 151 152 144 143 146 145 142
143 158 157 136 147 138 110 119 155 138 142 137 82 63 66 108 106 94 79 60 46 33 88 57 133 167 105 90 119 115 108 113 122 135 123 117 144 148 151 146 144 143 138 135
126 126 132 137 147 146 83 146 149 146 138 153 100 87 84 159 152 72 65 116 57 38 70 38 103 90 52 83 112 122 127 126 136 141 77 152 149 147 149 149 144 142 139 137
135 130 132 140 108 117 134 144 148 132 97 122 115 135 179 166 87 117 91 102 50 3 44 67 59 331 151 160 145 141 145 144 150 135 133 143 146 150 153 152 150 146 144 143
125 133 120 111 121 121 123 134 144 101 92 36 104 103 143 153 151 83 79 15 159 118 253 82 69 158 119 151 164 152 149 156 154 139 143 151 150 155 159 160 160 157 156 157
137 106 105 130 136 120 126 135 136 148 37 116 113 141 123 152 105 176 95 193 343 96 262 116 213 44 114 137 146 149 156 161 161 160 157 160 158 158 159 160 163 164 164 164
139 125 125 132 133 122 96 96 6 108 154 99 124 138 118 92 102 88 340 104 41 90 296 73 51 50 135 142 146 152 151 157 157 160 156 158 160 161 165 165 166 169 171 166
120 85 89 99 22 63 129 172 260 73 68 107 132 80 88 93 69 47 74 64 184 185 53 204 76 124 145 147 150 150 154 158 160 158 160 161 162 173 176 173 175 175 172 168
98 102 41 92 306 60 35 25 86 91 116 116 108 68 87 69 50 350 87 252 54 14 198 174 144 144 151 157 160 158 156 158 159 161 165 169 175 178 181 185 179 178 174 168
57 30 62 66 83 71 82 59 81 94 125 123 97 71 85 48 77 48 97 29 249 189 55 85 142 160 161 159 164 164 163 166 169 172 175 176 180 179 174 175 173 173 171 168
61 44 62 121 91 87 84 79 62 102 127 109 100 127 70 229 130 108 213 175 126 110 90 132 155 161 167 167 169 169 170 179 179 177 181 180 182 181 176 166 167 166 167 164
54 32 52 94 73 77 58 69 43 70 129 192 107 78 196 121 122 184 36 93 90 138 141 164 174 175 169 171 171 176 183 188 189 187 186 184 184 181 173 168 162 163 162 164
Height
1401 1405 1407 1412 1416 1422 1424 1427 1425 1425 1428 1435 1432 1426 1425 1420 1420 1419 1418 1421 1420 1422 1418 1420 1421 1424 1426 1427 1424 1427 1432 1440 1443 1437 1433 1434 1435 1441 1445 1460 1456 1456 1449 1448
1394 1398 1401 1406 1411 1415 1418 1419 1421 1421 1425 1423 1425 1424 1421 1418 1415 1417 1419 1415 1415 1415 1417 1421 1420 1421 1426 1427 1429 1431 1434 1447 1444 1436 1436 1434 1433 1431 1436 1442 1450 1450 1452 1452
1387 1390 1394 1399 1403 1408 1409 1412 1416 1418 1421 1420 1419 1418 1418 1419 1416 1411 1410 1409 1413 1416 1417 1415 1418 1425 1426 1426 1425 1430 1430 1427 1428 1435 1436 1437 1433 1430 1429 1436 1455 1447 1445 1446
1381 1383 1387 1392 1397 1402 1406 1403 1401 1407 1413 1414 1415 1414 1411 1411 1409 1404 1405 1408 1409 1416 1420 1415 1418 1420 1426 1426 1426 1431 1435 1436 1426 1423 1428 1427 1429 1425 1425 1428 1433 1446 1438 1448
1374 1376 1380 1386 1390 1394 1395 1395 1400 1402 1400 1403 1410 1411 1403 1404 1404 1406 1404 1406 1407 1410 1414 1414 1417 1420 1430 1424 1427 1430 1433 1439 1429 1432 1426 1426 1431 1428 1427 1428 1428 1430 1443 1459
1365 1368 1375 1379 1382 1389 1388 1392 1394 1396 1395 1397 1404 1402 1398 1395 1396 1396 1395 1398 1403 1405 1408 1414 1416 1417 1418 1422 1426 1431 1434 1436 1435 1442 1428 1428 1438 1434 1431 1434 1443 1439 1448 1456
1358 1362 1367 1371 1377 1380 1383 1387 1394 1393 1390 1390 1390 1389 1393 1392 1393 1399 1395 1396 1401 1409 1409 1415 1418 1418 1422 1424 1426 1427 1431 1435 1436 1433 1433 1444 1438 1437 1438 1445 1454 1452 1453 1458
1351 1355 1360 1366 1371 1374 1379 1383 1389 1391 1389 1386 1385 1387 1387 1390 1391 1397 1397 1396 1399 1406 1408 1419 1425 1425 1424 1423 1422 1424 1426 1430 1435 1440 1438 1436 1437 1441 1447 1449 1459 1459 1459 1461
1343 1348 1354 1360 1365 1369 1376 1380 1385 1389 1388 1385 1384 1382 1381 1388 1394 1397 1398 1398 1399 1404 1410 1421 1425 1430 1422 1425 1423 1422 1424 1426 1438 1436 1442 1447 1449 1442 1443 1446 1460 1460 1461 1463
1337 1344 1350 1354 1357 1364 1372 1378 1384 1386 1385 1382 1381 1379 1382 1385 1391 1397 1396 1396 1400 1402 1413 1422 1421 1417 1408 1419 1421 1426 1429 1432 1433 1437 1441 1446 1443 1442 1444 1458 1462 1459 1462 1462
1333 1339 1345 1348 1353 1362 1370 1377 1380 1385 1384 1380 1373 1374 1377 1382 1387 1393 1395 1400 1402 1406 1412 1413 1416 1418 1411 1415 1421 1419 1426 1432 1436 1435 1439 1445 1447 1445 1447 1454 1457 1458 1462 1463
1327 1335 1341 1345 1355 1363 1369 1375 1379 1382 1384 1384 1380 1379 1378 1382 1384 1385 1392 1392 1396 1399 1404 1406 1408 1413 1413 1413 1422 1417 1431 1430 1436 1442 1445 1449 1449 1450 1451 1452 1456 1460 1463 1465
1322 1331 1339 1348 1356 1363 1369 1374 1379 1382 1384 1385 1384 1383 1383 1384 1385 1386 1389 1391 1394 1397 1398 1401 1403 1404 1407 1418 1422 1421 1423 1425 1436 1441 1450 1451 1452 1453 1454 1455 1458 1462 1464 1467
1323 1332 1341 1349 1357 1363 1368 1372 1377 1381 1383 1385 1387 1386 1386 1385 1385 1387 1389 1391 1394 1397 1399 1401 1404 1408 1405 1412 1413 1418 1419 1423 1433 1443 1447 1451 1453 1454 1456 1458 1461 1463 1466 1468
1329 1336 1344 1352 1358 1364 1370 1374 1376 1378 1384 1384 1386 1387 1387 1387 1387 1389 1390 1392 1395 1398 1400 1402 1407 1404 1407 1408 1413 1421 1419 1425 1432 1432 1434 1440 1448 1453 1457 1459 1462 1464 1467 1470
1334 1341 1347 1353 1359 1365 1369 1374 1376 1378 1380 1383 1388 1390 1390 1390 1390 1391 1393 1395 1397 1398 1398 1401 1404 1405 1408 1416 1423 1423 1422 1422 1423 1429 1435 1437 1446 1452 1456 1459 1462 1465 1468 1470
1340 1345 1350 1355 1361 1366 1370 1373 1377 1377 1381 1384 1390 1393 1393 1393 1394 1395 1396 1396 1397 1397 1399 1401 1404 1406 1406 1413 1422 1423 1424 1425 1426 1430 1434 1445 1449 1452 1456 1460 1463 1466 1469 1471
1345 1350 1355 1360 1364 1369 1371 1373 1376 1380 1382 1383 1387 1396 1396 1396 1396 1397 1398 1398 1399 1400 1401 1402 1404 1406 1407 1420 1421 1422 1425 1427 1431 1434 1435 1440 1447 1453 1457 1461 1464 1467 1469 1472
1349 1355 1360 1363 1367 1371 1372 1375 1379 1381 1384 1382 1385 1394 1401 1396 1396 1398 1399 1399 1404 1403 1404 1404 1406 1411 1415 1414 1418 1422 1426 1428 1433 1436 1438 1443 1448 1453 1458 1461 1464 1467 1469 1472
1356 1361 1363 1366 1369 1372 1376 1381 1381 1381 1382 1382 1385 1387 1394 1395 1396 1399 1401 1400 1404 1409 1407 1405 1411 1417 1411 1413 1416 1421 1426 1429 1433 1436 1441 1444 1448 1453 1457 1461 1463 1466 1469 1471
1360 1362 1365 1368 1372 1375 1377 1380 1381 1381 1383 1383 1386 1387 1391 1395 1398 1400 1399 1403 1403 1409 1410 1411 1415 1418 1415 1416 1419 1424 1428 1432 1435 1438 1441 1445 1448 1452 1457 1460 1463 1466 1468 1470
1361 1363 1368 1372 1374 1376 1378 1381 1381 1381 1383 1383 1386 1389 1391 1394 1396 1398 1401 1403 1406 1408 1406 1413 1420 1418 1416 1418 1421 1426 1429 1433 1437 1440 1443 1446 1450 1454 1456 1459 1462 1465 1468 1471
1364 1367 1370 1372 1375 1381 1382 1388 1383 1385 1381 1383 1386 1392 1393 1396 1398 1401 1405 1414 1416 1407 1418 1418 1417 1417 1419 1421 1424 1427 1431 1434 1437 1441 1444 1447 1450 1453 1456 1459 1462 1465 1468 1471
1366 1369 1378 1377 1381 1379 1380 1379 1381 1382 1383 1384 1388 1393 1396 1399 1403 1405 1412 1412 1410 1421 1420 1412 1416 1417 1420 1422 1425 1427 1431 1434 1437 1440 1443 1446 1450 1453 1456 1459 1462 1464 1467 1470
1369 1371 1379 1380 1380 1381 1382 1382 1382 1384 1386 1388 1392 1395 1399 1403 1409 1407 1410 1417 1418 1416 1410 1413 1415 1418 1420 1423 1426 1429 1432 1435 1437 1440 1443 1446 1450 1453 1456 1458 1461 1464 1467 1470
1374 1378 1380 1381 1382 1385 1386 1386 1386 1388 1389 1391 1394 1397 1404 1406 1405 1409 1413 1407 1410 1413 1414 1415 1416 1418 1421 1423 1426 1429 1432 1435 1438 1441 1443 1446 1449 1452 1455 1457 1461 1464 1468 1471
1379 1383 1382 1382 1384 1387 1388 1388 1390 1391 1393 1396 1394 1401 1400 1399 1404 1404 1404 1410 1411 1413 1415 1416 1417 1419 1421 1424 1427 1430 1432 1435 1438 1441 1443 1446 1449 1452 1454 1457 1461 1465 1468 1472